Time,TemperatureF,DewpointF,PressureIn,WindDirection,WindDirectionDegrees,WindSpeedMPH,WindSpeedGustMPH,Humidity,HourlyPrecipIn,Conditions,Clouds,dailyrainin,SoftwareType,DateUTC
2013-07-16 00:01:00,76.6,68.8,30.10,SE,140,6.0,9.0,77,0.00,,,0.00,Wunderground v.1.15,2013-07-16 05:01:00,
2013-07-16 00:06:00,76.5,68.7,30.11,SE,133,6.0,12.0,77,0.00,,,0.00,Wunderground v.1.15,2013-07-16 05:06:00,
2013-07-16 00:11:00,76.4,69.0,30.10,SE,138,6.0,11.0,78,0.00,,,0.00,Wunderground v.1.15,2013-07-16 05:11:00,
2013-07-16 00:16:00,76.4,69.0,30.11,South,186,6.0,11.0,78,0.00,,,0.00,Wunderground v.1.15,2013-07-16 05:16:00,
2013-07-16 00:21:00,76.1,68.7,30.11,SSE,159,7.0,10.0,78,0.00,,,0.00,Wunderground v.1.15,2013-07-16 05:21:00,
2013-07-16 00:26:00,76.0,68.6,30.11,South,175,7.0,13.0,78,0.00,,,0.00,Wunderground v.1.15,2013-07-16 05:26:00,
2013-07-16 00:31:00,75.8,68.8,30.11,SSE,159,7.0,10.0,79,0.00,,,0.00,Wunderground v.1.15,2013-07-16 05:31:00,
2013-07-16 00:36:00,75.6,69.0,30.11,ESE,120,7.0,11.0,80,0.00,,,0.00,Wunderground v.1.15,2013-07-16 05:36:00,
2013-07-16 00:41:00,75.3,68.7,30.11,SSE,164,7.0,10.0,80,0.00,,,0.00,Wunderground v.1.15,2013-07-16 05:41:00,
2013-07-16 00:46:00,75.1,68.9,30.11,SSE,153,7.0,11.0,81,0.00,,,0.00,Wunderground v.1.15,2013-07-16 05:46:00,
2013-07-16 00:51:00,74.9,68.7,30.11,SE,146,7.0,9.0,81,0.00,,,0.00,Wunderground v.1.15,2013-07-16 05:51:00,
2013-07-16 00:56:00,74.9,69.0,30.11,SSE,162,7.0,10.0,82,0.00,,,0.00,Wunderground v.1.15,2013-07-16 05:56:00,
2013-07-16 01:01:00,74.9,69.0,30.11,SE,144,6.0,9.0,82,0.00,,,0.00,Wunderground v.1.15,2013-07-16 06:01:00,
2013-07-16 01:06:00,74.8,68.9,30.11,South,181,6.0,13.0,82,0.00,,,0.00,Wunderground v.1.15,2013-07-16 06:06:00,
2013-07-16 01:11:00,74.8,68.9,30.11,SSE,165,5.0,9.0,82,0.00,,,0.00,Wunderground v.1.15,2013-07-16 06:11:00,
2013-07-16 01:16:00,74.7,68.8,30.11,South,175,5.0,10.0,82,0.00,,,0.00,Wunderground v.1.15,2013-07-16 06:16:00,
2013-07-16 01:21:00,74.7,68.8,30.11,South,173,5.0,6.0,82,0.00,,,0.00,Wunderground v.1.15,2013-07-16 06:21:00,
2013-07-16 01:26:00,74.6,69.1,30.11,SSE,164,4.0,10.0,83,0.00,,,0.00,Wunderground v.1.15,2013-07-16 06:26:00,
2013-07-16 01:31:00,74.7,69.2,30.11,SW,216,5.0,8.0,83,0.00,,,0.00,Wunderground v.1.15,2013-07-16 06:31:00,
2013-07-16 01:36:00,74.6,69.1,30.11,South,191,5.0,10.0,83,0.00,,,0.00,Wunderground v.1.15,2013-07-16 06:36:00,
2013-07-16 01:41:00,74.6,69.1,30.11,SSW,204,5.0,7.0,83,0.00,,,0.00,Wunderground v.1.15,2013-07-16 06:41:00,
2013-07-16 01:46:00,74.7,69.2,30.11,SSW,194,5.0,10.0,83,0.00,,,0.00,Wunderground v.1.15,2013-07-16 06:46:00,
2013-07-16 01:51:00,74.7,69.2,30.11,South,191,6.0,10.0,83,0.00,,,0.00,Wunderground v.1.15,2013-07-16 06:51:00,
2013-07-16 01:56:00,74.6,69.1,30.11,SE,142,5.0,10.0,83,0.00,,,0.00,Wunderground v.1.15,2013-07-16 06:56:00,
2013-07-16 02:01:00,74.6,69.1,30.11,South,179,5.0,9.0,83,0.00,,,0.00,Wunderground v.1.15,2013-07-16 07:01:00,
2013-07-16 02:06:00,74.5,69.0,30.11,South,182,5.0,9.0,83,0.00,,,0.00,Wunderground v.1.15,2013-07-16 07:06:00,
2013-07-16 02:11:00,74.6,69.1,30.11,SSE,161,5.0,7.0,83,0.00,,,0.00,Wunderground v.1.15,2013-07-16 07:11:00,
2013-07-16 02:16:00,74.5,69.0,30.11,SSW,195,5.0,7.0,83,0.00,,,0.00,Wunderground v.1.15,2013-07-16 07:16:00,
2013-07-16 02:21:00,74.4,69.2,30.11,South,169,4.0,4.0,84,0.00,,,0.00,Wunderground v.1.15,2013-07-16 07:21:00,
2013-07-16 02:26:00,74.2,69.1,30.11,SSW,198,3.0,5.0,84,0.00,,,0.00,Wunderground v.1.15,2013-07-16 07:26:00,
2013-07-16 02:31:00,74.0,69.2,30.11,South,175,3.0,7.0,85,0.00,,,0.00,Wunderground v.1.15,2013-07-16 07:31:00,
2013-07-16 02:36:00,73.8,69.0,30.11,South,188,3.0,7.0,85,0.00,,,0.00,Wunderground v.1.15,2013-07-16 07:36:00,
2013-07-16 02:41:00,73.7,68.9,30.11,SSE,161,3.0,5.0,85,0.00,,,0.00,Wunderground v.1.15,2013-07-16 07:41:00,
2013-07-16 02:46:00,73.6,68.8,30.11,South,180,3.0,5.0,85,0.00,,,0.00,Wunderground v.1.15,2013-07-16 07:46:00,
2013-07-16 02:51:00,73.5,69.1,30.11,South,178,2.0,4.0,86,0.00,,,0.00,Wunderground v.1.15,2013-07-16 07:51:00,
2013-07-16 02:56:00,73.4,69.0,30.11,South,179,1.0,4.0,86,0.00,,,0.00,Wunderground v.1.15,2013-07-16 07:56:00,
2013-07-16 03:01:00,73.2,68.8,30.11,South,173,2.0,4.0,86,0.00,,,0.00,Wunderground v.1.15,2013-07-16 08:01:00,
2013-07-16 03:06:00,73.1,68.7,30.11,SE,139,2.0,6.0,86,0.00,,,0.00,Wunderground v.1.15,2013-07-16 08:06:00,
2013-07-16 03:11:00,72.9,68.8,30.11,SSE,152,3.0,4.0,87,0.00,,,0.00,Wunderground v.1.15,2013-07-16 08:11:00,
2013-07-16 03:16:00,72.8,68.7,30.11,SSE,155,3.0,5.0,87,0.00,,,0.00,Wunderground v.1.15,2013-07-16 08:16:00,
2013-07-16 03:21:00,72.6,68.5,30.11,South,188,2.0,4.0,87,0.00,,,0.00,Wunderground v.1.15,2013-07-16 08:21:00,
2013-07-16 03:26:00,72.4,68.6,30.11,South,186,2.0,5.0,88,0.00,,,0.00,Wunderground v.1.15,2013-07-16 08:26:00,
2013-07-16 03:31:00,72.3,68.5,30.11,South,171,3.0,4.0,88,0.00,,,0.00,Wunderground v.1.15,2013-07-16 08:31:00,
2013-07-16 03:36:00,72.2,68.4,30.11,SE,146,3.0,5.0,88,0.00,,,0.00,Wunderground v.1.15,2013-07-16 08:36:00,
2013-07-16 03:41:00,72.2,68.4,30.11,SSW,194,2.0,4.0,88,0.00,,,0.00,Wunderground v.1.15,2013-07-16 08:41:00,
2013-07-16 03:46:00,72.0,68.6,30.11,South,188,2.0,6.0,89,0.00,,,0.00,Wunderground v.1.15,2013-07-16 08:46:00,
2013-07-16 03:51:00,71.9,68.5,30.11,SSE,167,2.0,4.0,89,0.00,,,0.00,Wunderground v.1.15,2013-07-16 08:51:00,
2013-07-16 03:56:00,71.8,68.4,30.11,SSE,156,2.0,5.0,89,0.00,,,0.00,Wunderground v.1.15,2013-07-16 08:56:00,
2013-07-16 04:01:00,71.8,68.7,30.11,South,171,3.0,4.0,90,0.00,,,0.00,Wunderground v.1.15,2013-07-16 09:01:00,
2013-07-16 04:06:00,71.8,68.4,30.11,SSE,159,3.0,5.0,89,0.00,,,0.00,Wunderground v.1.15,2013-07-16 09:06:00,
2013-07-16 04:11:00,71.7,68.3,30.11,SSE,163,4.0,6.0,89,0.00,,,0.00,Wunderground v.1.15,2013-07-16 09:11:00,
2013-07-16 04:16:00,71.6,68.5,30.11,SSE,155,4.0,6.0,90,0.00,,,0.00,Wunderground v.1.15,2013-07-16 09:16:00,
2013-07-16 04:21:00,71.5,68.4,30.11,SSE,148,3.0,5.0,90,0.00,,,0.00,Wunderground v.1.15,2013-07-16 09:21:00,
2013-07-16 04:26:00,71.2,68.1,30.11,SE,140,3.0,5.0,90,0.00,,,0.00,Wunderground v.1.15,2013-07-16 09:26:00,
2013-07-16 04:31:00,71.0,67.9,30.11,SSE,147,3.0,4.0,90,0.00,,,0.00,Wunderground v.1.15,2013-07-16 09:31:00,
2013-07-16 04:36:00,70.8,67.7,30.11,SE,144,3.0,5.0,90,0.00,,,0.00,Wunderground v.1.15,2013-07-16 09:36:00,
2013-07-16 04:37:00,70.8,67.7,30.11,SE,144,3.0,5.0,90,0.00,,,0.00,Wunderground v.1.15,2013-07-16 09:37:00,
2013-07-16 04:42:00,70.8,68.0,30.11,SSE,159,3.0,4.0,91,0.00,,,0.00,Wunderground v.1.15,2013-07-16 09:42:00,
2013-07-16 04:47:00,70.7,67.9,30.11,SSE,165,3.0,5.0,91,0.00,,,0.00,Wunderground v.1.15,2013-07-16 09:47:00,
2013-07-16 04:52:00,70.7,67.9,30.11,SSW,205,3.0,4.0,91,0.00,,,0.00,Wunderground v.1.15,2013-07-16 09:52:00,
2013-07-16 04:57:00,70.8,68.0,30.11,SSW,196,2.0,5.0,91,0.00,,,0.00,Wunderground v.1.15,2013-07-16 09:57:00,
2013-07-16 05:02:00,70.7,67.9,30.11,South,170,1.0,4.0,91,0.00,,,0.00,Wunderground v.1.15,2013-07-16 10:02:00,
2013-07-16 05:07:00,70.7,67.9,30.11,South,171,2.0,4.0,91,0.00,,,0.00,Wunderground v.1.15,2013-07-16 10:07:00,
2013-07-16 05:12:00,70.7,67.9,30.12,South,186,2.0,4.0,91,0.00,,,0.00,Wunderground v.1.15,2013-07-16 10:12:00,
2013-07-16 05:17:00,70.7,67.9,30.12,South,179,1.0,5.0,91,0.00,,,0.00,Wunderground v.1.15,2013-07-16 10:17:00,
2013-07-16 05:21:00,70.6,67.8,30.11,SSW,194,1.0,4.0,91,0.00,,,0.00,Wunderground v.1.15,2013-07-16 10:21:00,
2013-07-16 05:26:00,70.5,67.7,30.12,SSE,156,2.0,4.0,91,0.00,,,0.00,Wunderground v.1.15,2013-07-16 10:26:00,
2013-07-16 05:31:00,70.4,67.6,30.12,South,171,3.0,5.0,91,0.00,,,0.00,Wunderground v.1.15,2013-07-16 10:31:00,
2013-07-16 05:36:00,70.3,67.5,30.12,SSE,157,3.0,5.0,91,0.00,,,0.00,Wunderground v.1.15,2013-07-16 10:36:00,
2013-07-16 05:41:00,70.3,67.9,30.12,SSE,157,3.0,5.0,92,0.00,,,0.00,Wunderground v.1.15,2013-07-16 10:41:00,
2013-07-16 05:47:00,70.1,67.7,30.12,SSE,159,3.0,6.0,92,0.00,,,0.00,Wunderground v.1.15,2013-07-16 10:47:00,
2013-07-16 05:52:00,69.9,67.5,30.12,South,182,3.0,5.0,92,0.00,,,0.00,Wunderground v.1.15,2013-07-16 10:52:00,
2013-07-16 05:57:00,69.8,67.4,30.12,SE,142,3.0,5.0,92,0.00,,,0.00,Wunderground v.1.15,2013-07-16 10:57:00,
2013-07-16 06:02:00,69.8,67.4,30.12,SSE,159,4.0,7.0,92,0.00,,,0.00,Wunderground v.1.15,2013-07-16 11:02:00,
2013-07-16 06:07:00,69.8,67.7,30.12,SSE,165,4.0,7.0,93,0.00,,,0.00,Wunderground v.1.15,2013-07-16 11:07:00,
2013-07-16 06:12:00,69.8,67.7,30.13,SE,143,3.0,8.0,93,0.00,,,0.00,Wunderground v.1.15,2013-07-16 11:12:00,
2013-07-16 06:17:00,69.9,67.8,30.12,SSE,157,3.0,8.0,93,0.00,,,0.00,Wunderground v.1.15,2013-07-16 11:17:00,
2013-07-16 06:22:00,69.9,67.8,30.13,South,169,3.0,4.0,93,0.00,,,0.00,Wunderground v.1.15,2013-07-16 11:22:00,
2013-07-16 06:27:00,70.0,67.9,30.13,SSE,155,3.0,6.0,93,0.00,,,0.00,Wunderground v.1.15,2013-07-16 11:27:00,
2013-07-16 06:32:00,70.1,68.0,30.13,SSE,154,3.0,6.0,93,0.00,,,0.00,Wunderground v.1.15,2013-07-16 11:32:00,
2013-07-16 06:37:00,70.1,67.7,30.13,SSE,167,3.0,6.0,92,0.00,,,0.00,Wunderground v.1.15,2013-07-16 11:37:00,
2013-07-16 06:42:00,70.2,67.8,30.13,SSE,168,4.0,6.0,92,0.00,,,0.00,Wunderground v.1.15,2013-07-16 11:42:00,
2013-07-16 06:47:00,70.4,68.0,30.13,SSE,148,4.0,7.0,92,0.00,,,0.00,Wunderground v.1.15,2013-07-16 11:47:00,
2013-07-16 06:52:00,70.5,68.1,30.13,SSE,159,4.0,6.0,92,0.00,,,0.00,Wunderground v.1.15,2013-07-16 11:52:00,
2013-07-16 06:57:00,70.7,68.3,30.14,SSE,154,4.0,6.0,92,0.00,,,0.00,Wunderground v.1.15,2013-07-16 11:57:00,
2013-07-16 07:02:00,70.9,68.1,30.14,South,169,4.0,7.0,91,0.00,,,0.00,Wunderground v.1.15,2013-07-16 12:02:00,
2013-07-16 07:07:00,71.1,68.3,30.14,SSW,211,4.0,7.0,91,0.00,,,0.00,Wunderground v.1.15,2013-07-16 12:07:00,
2013-07-16 07:12:00,71.4,68.6,30.14,SSW,213,4.0,6.0,91,0.00,,,0.00,Wunderground v.1.15,2013-07-16 12:12:00,
2013-07-16 07:17:00,71.6,68.5,30.14,SSW,205,3.0,8.0,90,0.00,,,0.00,Wunderground v.1.15,2013-07-16 12:17:00,
2013-07-16 07:22:00,71.9,68.8,30.14,SSW,198,3.0,8.0,90,0.00,,,0.00,Wunderground v.1.15,2013-07-16 12:22:00,
2013-07-16 07:27:00,72.0,68.6,30.14,South,191,4.0,8.0,89,0.00,,,0.00,Wunderground v.1.15,2013-07-16 12:27:00,
2013-07-16 07:32:00,72.1,68.7,30.14,South,170,5.0,7.0,89,0.00,,,0.00,Wunderground v.1.15,2013-07-16 12:32:00,
2013-07-16 07:37:00,72.3,68.5,30.15,South,188,5.0,8.0,88,0.00,,,0.00,Wunderground v.1.15,2013-07-16 12:37:00,
2013-07-16 07:42:00,72.4,68.6,30.15,SSE,163,6.0,7.0,88,0.00,,,0.00,Wunderground v.1.15,2013-07-16 12:42:00,
2013-07-16 07:47:00,72.7,68.9,30.14,SSW,200,5.0,7.0,88,0.00,,,0.00,Wunderground v.1.15,2013-07-16 12:47:00,
2013-07-16 07:52:00,72.9,68.8,30.15,SW,236,5.0,9.0,87,0.00,,,0.00,Wunderground v.1.15,2013-07-16 12:52:00,
2013-07-16 07:57:00,73.2,69.1,30.15,SSW,202,5.0,9.0,87,0.00,,,0.00,Wunderground v.1.15,2013-07-16 12:57:00,
2013-07-16 08:02:00,73.5,69.4,30.15,SW,219,4.0,8.0,87,0.00,,,0.00,Wunderground v.1.15,2013-07-16 13:02:00,
2013-07-16 08:07:00,73.8,69.3,30.15,SSW,211,5.0,8.0,86,0.00,,,0.00,Wunderground v.1.15,2013-07-16 13:07:00,
2013-07-16 08:12:00,74.1,69.6,30.15,SSW,194,6.0,12.0,86,0.00,,,0.00,Wunderground v.1.15,2013-07-16 13:12:00,
2013-07-16 08:17:00,74.4,69.6,30.15,SSW,211,6.0,12.0,85,0.00,,,0.00,Wunderground v.1.15,2013-07-16 13:17:00,
2013-07-16 08:22:00,74.8,70.0,30.15,SSW,209,5.0,10.0,85,0.00,,,0.00,Wunderground v.1.15,2013-07-16 13:22:00,
2013-07-16 08:27:00,75.1,69.9,30.15,SSW,205,6.0,12.0,84,0.00,,,0.00,Wunderground v.1.15,2013-07-16 13:27:00,
2013-07-16 08:32:00,75.5,70.0,30.15,SSW,209,5.0,9.0,83,0.00,,,0.00,Wunderground v.1.15,2013-07-16 13:32:00,
2013-07-16 08:37:00,75.9,70.0,30.15,SW,217,5.0,9.0,82,0.00,,,0.00,Wunderground v.1.15,2013-07-16 13:37:00,
2013-07-16 08:42:00,76.0,69.7,30.16,SSW,201,6.0,9.0,81,0.00,,,0.00,Wunderground v.1.15,2013-07-16 13:42:00,
2013-07-16 08:47:00,76.4,70.1,30.16,SSW,197,5.0,9.0,81,0.00,,,0.00,Wunderground v.1.15,2013-07-16 13:47:00,
2013-07-16 08:52:00,76.8,70.5,30.16,SW,229,4.0,7.0,81,0.00,,,0.00,Wunderground v.1.15,2013-07-16 13:52:00,
2013-07-16 08:57:00,76.8,70.2,30.16,SSW,213,5.0,10.0,80,0.00,,,0.00,Wunderground v.1.15,2013-07-16 13:57:00,
2013-07-16 09:02:00,77.1,70.5,30.16,SW,219,6.0,10.0,80,0.00,,,0.00,Wunderground v.1.15,2013-07-16 14:02:00,
2013-07-16 09:07:00,76.9,69.9,30.16,SSW,208,6.0,11.0,79,0.00,,,0.00,Wunderground v.1.15,2013-07-16 14:07:00,
2013-07-16 09:12:00,77.1,70.1,30.16,SSW,213,7.0,9.0,79,0.00,,,0.00,Wunderground v.1.15,2013-07-16 14:12:00,
2013-07-16 09:17:00,77.5,70.1,30.16,SSW,202,6.0,10.0,78,0.00,,,0.00,Wunderground v.1.15,2013-07-16 14:17:00,
2013-07-16 09:22:00,78.0,70.2,30.16,SW,222,5.0,10.0,77,0.00,,,0.00,Wunderground v.1.15,2013-07-16 14:22:00,
2013-07-16 09:27:00,78.2,69.2,30.16,SW,224,7.0,13.0,74,0.00,,,0.00,Wunderground v.1.15,2013-07-16 14:27:00,
2013-07-16 09:32:00,78.7,69.3,30.16,WSW,244,6.0,8.0,73,0.00,,,0.00,Wunderground v.1.15,2013-07-16 14:32:00,
2013-07-16 09:37:00,79.0,69.6,30.16,SSW,203,5.0,10.0,73,0.00,,,0.00,Wunderground v.1.15,2013-07-16 14:37:00,
2013-07-16 09:42:00,79.3,69.5,30.16,SW,224,6.0,8.0,72,0.00,,,0.00,Wunderground v.1.15,2013-07-16 14:42:00,
2013-07-16 09:47:00,79.5,69.3,30.16,WSW,246,6.0,10.0,71,0.00,,,0.00,Wunderground v.1.15,2013-07-16 14:47:00,
2013-07-16 09:52:00,79.8,69.1,30.16,SSW,212,6.0,10.0,70,0.00,,,0.00,Wunderground v.1.15,2013-07-16 14:52:00,
2013-07-16 09:57:00,79.9,69.2,30.16,SW,231,7.0,11.0,70,0.00,,,0.00,Wunderground v.1.15,2013-07-16 14:57:00,
2013-07-16 10:02:00,80.1,69.4,30.16,SW,214,6.0,10.0,70,0.00,,,0.00,Wunderground v.1.15,2013-07-16 15:02:00,
2013-07-16 10:07:00,80.3,69.2,30.16,SSW,197,6.0,12.0,69,0.00,,,0.00,Wunderground v.1.15,2013-07-16 15:07:00,
2013-07-16 10:12:00,80.8,69.7,30.16,South,187,6.0,10.0,69,0.00,,,0.00,Wunderground v.1.15,2013-07-16 15:12:00,
2013-07-16 10:17:00,80.9,69.8,30.16,SW,221,6.0,13.0,69,0.00,,,0.00,Wunderground v.1.15,2013-07-16 15:17:00,
2013-07-16 10:22:00,81.1,69.5,30.16,WSW,238,6.0,7.0,68,0.00,,,0.00,Wunderground v.1.15,2013-07-16 15:22:00,
2013-07-16 10:27:00,81.3,69.3,30.16,SSW,207,6.0,12.0,67,0.00,,,0.00,Wunderground v.1.15,2013-07-16 15:27:00,
2013-07-16 10:32:00,81.4,69.8,30.16,SW,223,6.0,10.0,68,0.00,,,0.00,Wunderground v.1.15,2013-07-16 15:32:00,
2013-07-16 10:37:00,81.7,70.1,30.16,SW,236,6.0,10.0,68,0.00,,,0.00,Wunderground v.1.15,2013-07-16 15:37:00,
2013-07-16 10:42:00,81.9,69.9,30.16,SW,220,6.0,10.0,67,0.00,,,0.00,Wunderground v.1.15,2013-07-16 15:42:00,
2013-07-16 10:47:00,82.2,69.3,30.16,WSW,238,6.0,13.0,65,0.00,,,0.00,Wunderground v.1.15,2013-07-16 15:47:00,
2013-07-16 10:52:00,82.5,68.6,30.16,SW,234,7.0,14.0,63,0.00,,,0.00,Wunderground v.1.15,2013-07-16 15:52:00,
2013-07-16 10:57:00,83.0,68.2,30.16,SW,233,8.0,14.0,61,0.00,,,0.00,Wunderground v.1.15,2013-07-16 15:57:00,
2013-07-16 11:02:00,83.0,68.2,30.16,WSW,247,7.0,8.0,61,0.00,,,0.00,Wunderground v.1.15,2013-07-16 16:02:00,
2013-07-16 11:07:00,83.2,67.9,30.17,SW,219,7.0,14.0,60,0.00,,,0.00,Wunderground v.1.15,2013-07-16 16:07:00,
2013-07-16 11:12:00,83.0,68.2,30.16,SW,232,8.0,13.0,61,0.00,,,0.00,Wunderground v.1.15,2013-07-16 16:12:00,
2013-07-16 11:17:00,83.0,67.7,30.16,WSW,245,9.0,14.0,60,0.00,,,0.00,Wunderground v.1.15,2013-07-16 16:17:00,
2013-07-16 11:22:00,83.5,67.7,30.16,WSW,244,8.0,12.0,59,0.00,,,0.00,Wunderground v.1.15,2013-07-16 16:22:00,
2013-07-16 11:27:00,83.1,67.8,30.16,WSW,238,8.0,15.0,60,0.00,,,0.00,Wunderground v.1.15,2013-07-16 16:27:00,
2013-07-16 11:32:00,83.7,68.3,30.16,SW,229,9.0,11.0,60,0.00,,,0.00,Wunderground v.1.15,2013-07-16 16:32:00,
2013-07-16 11:37:00,83.7,68.3,30.16,WSW,257,8.0,17.0,60,0.00,,,0.00,Wunderground v.1.15,2013-07-16 16:37:00,
2013-07-16 11:42:00,83.4,68.5,30.16,WSW,246,10.0,13.0,61,0.00,,,0.00,Wunderground v.1.15,2013-07-16 16:42:00,
2013-07-16 11:47:00,83.8,68.9,30.16,WSW,252,9.0,14.0,61,0.00,,,0.00,Wunderground v.1.15,2013-07-16 16:47:00,
2013-07-16 11:52:00,84.2,68.8,30.17,SW,232,8.0,12.0,60,0.00,,,0.00,Wunderground v.1.15,2013-07-16 16:52:00,
2013-07-16 11:57:00,84.0,68.6,30.17,WSW,238,7.0,15.0,60,0.00,,,0.00,Wunderground v.1.15,2013-07-16 16:57:00,
2013-07-16 12:02:00,84.2,67.8,30.17,SW,228,8.0,13.0,58,0.00,,,0.00,Wunderground v.1.15,2013-07-16 17:02:00,
2013-07-16 12:07:00,84.0,68.1,30.16,WSW,253,8.0,13.0,59,0.00,,,0.00,Wunderground v.1.15,2013-07-16 17:07:00,
2013-07-16 12:12:00,84.6,68.7,30.16,SSW,211,7.0,13.0,59,0.00,,,0.00,Wunderground v.1.15,2013-07-16 17:12:00,
2013-07-16 12:17:00,84.7,68.3,30.16,South,190,8.0,15.0,58,0.00,,,0.00,Wunderground v.1.15,2013-07-16 17:17:00,
2013-07-16 12:22:00,84.4,68.5,30.16,WSW,257,8.0,12.0,59,0.00,,,0.00,Wunderground v.1.15,2013-07-16 17:22:00,
2013-07-16 12:27:00,84.6,68.7,30.16,SW,235,8.0,13.0,59,0.00,,,0.00,Wunderground v.1.15,2013-07-16 17:27:00,
2013-07-16 12:32:00,84.8,68.4,30.16,SW,235,8.0,14.0,58,0.00,,,0.00,Wunderground v.1.15,2013-07-16 17:32:00,
2013-07-16 12:37:00,85.1,68.2,30.16,SW,218,8.0,14.0,57,0.00,,,0.00,Wunderground v.1.15,2013-07-16 17:37:00,
2013-07-16 12:42:00,85.2,68.8,30.16,WSW,243,7.0,14.0,58,0.00,,,0.00,Wunderground v.1.15,2013-07-16 17:42:00,
2013-07-16 12:47:00,85.3,67.8,30.16,WSW,242,8.0,14.0,56,0.00,,,0.00,Wunderground v.1.15,2013-07-16 17:47:00,
2013-07-16 12:52:00,85.8,67.8,30.16,SW,219,8.0,14.0,55,0.00,,,0.00,Wunderground v.1.15,2013-07-16 17:52:00,
2013-07-16 12:57:00,85.6,68.6,30.16,SW,236,8.0,14.0,57,0.00,,,0.00,Wunderground v.1.15,2013-07-16 17:57:00,
2013-07-16 13:02:00,86.2,69.2,30.16,SSW,213,7.0,11.0,57,0.00,,,0.00,Wunderground v.1.15,2013-07-16 18:02:00,
2013-07-16 13:07:00,85.7,67.7,30.16,WSW,238,7.0,15.0,55,0.00,,,0.00,Wunderground v.1.15,2013-07-16 18:07:00,
2013-07-16 13:12:00,85.4,66.9,30.16,South,184,9.0,17.0,54,0.00,,,0.00,Wunderground v.1.15,2013-07-16 18:12:00,
2013-07-16 13:17:00,85.4,67.9,30.16,WSW,246,8.0,17.0,56,0.00,,,0.00,Wunderground v.1.15,2013-07-16 18:17:00,
2013-07-16 13:22:00,85.6,67.6,30.16,WSW,244,8.0,11.0,55,0.00,,,0.00,Wunderground v.1.15,2013-07-16 18:22:00,
2013-07-16 13:27:00,86.1,67.5,30.16,SW,225,8.0,12.0,54,0.00,,,0.00,Wunderground v.1.15,2013-07-16 18:27:00,
2013-07-16 13:32:00,86.3,68.2,30.16,SW,229,7.0,12.0,55,0.00,,,0.00,Wunderground v.1.15,2013-07-16 18:32:00,
2013-07-16 13:37:00,86.2,67.6,30.16,SW,228,8.0,15.0,54,0.00,,,0.00,Wunderground v.1.15,2013-07-16 18:37:00,
2013-07-16 13:42:00,86.0,67.4,30.16,SW,214,8.0,17.0,54,0.00,,,0.00,Wunderground v.1.15,2013-07-16 18:42:00,
2013-07-16 13:47:00,86.1,68.0,30.16,SW,227,8.0,17.0,55,0.00,,,0.00,Wunderground v.1.15,2013-07-16 18:47:00,
2013-07-16 13:52:00,86.0,67.4,30.16,South,180,7.0,12.0,54,0.00,,,0.00,Wunderground v.1.15,2013-07-16 18:52:00,
2013-07-16 13:57:00,86.4,67.8,30.16,SSW,196,7.0,13.0,54,0.00,,,0.00,Wunderground v.1.15,2013-07-16 18:57:00,
2013-07-16 14:02:00,86.4,67.2,30.16,SW,217,8.0,16.0,53,0.00,,,0.00,Wunderground v.1.15,2013-07-16 19:02:00,
2013-07-16 14:07:00,86.4,67.2,30.16,SSW,209,9.0,16.0,53,0.00,,,0.00,Wunderground v.1.15,2013-07-16 19:07:00,
2013-07-16 14:12:00,86.3,67.7,30.16,South,188,8.0,17.0,54,0.00,,,0.00,Wunderground v.1.15,2013-07-16 19:12:00,
2013-07-16 14:17:00,86.5,67.3,30.15,SW,217,7.0,17.0,53,0.00,,,0.00,Wunderground v.1.15,2013-07-16 19:17:00,
2013-07-16 14:22:00,86.4,67.2,30.15,WSW,243,7.0,10.0,53,0.00,,,0.00,Wunderground v.1.15,2013-07-16 19:22:00,
2013-07-16 14:27:00,86.4,65.6,30.16,South,182,9.0,18.0,50,0.00,,,0.00,Wunderground v.1.15,2013-07-16 19:27:00,
2013-07-16 14:32:00,86.7,67.0,30.16,SSW,200,9.0,10.0,52,0.00,,,0.00,Wunderground v.1.15,2013-07-16 19:32:00,
2013-07-16 14:37:00,86.2,67.1,30.16,SW,229,7.0,12.0,53,0.00,,,0.00,Wunderground v.1.15,2013-07-16 19:37:00,
2013-07-16 14:42:00,86.0,67.4,30.16,SW,236,8.0,14.0,54,0.00,,,0.00,Wunderground v.1.15,2013-07-16 19:42:00,
2013-07-16 14:47:00,86.4,67.2,30.15,WSW,252,8.0,17.0,53,0.00,,,0.00,Wunderground v.1.15,2013-07-16 19:47:00,
2013-07-16 14:52:00,86.4,67.2,30.15,SW,225,9.0,13.0,53,0.00,,,0.00,Wunderground v.1.15,2013-07-16 19:52:00,
2013-07-16 14:57:00,86.9,67.7,30.15,WSW,238,9.0,18.0,53,0.00,,,0.00,Wunderground v.1.15,2013-07-16 19:57:00,
2013-07-16 15:02:00,87.5,67.1,30.15,SW,236,7.0,15.0,51,0.00,,,0.00,Wunderground v.1.15,2013-07-16 20:02:00,
2013-07-16 15:07:00,87.4,67.6,30.15,SW,218,8.0,15.0,52,0.00,,,0.00,Wunderground v.1.15,2013-07-16 20:07:00,
2013-07-16 15:12:00,87.1,67.3,30.15,WNW,292,8.0,9.0,52,0.00,,,0.00,Wunderground v.1.15,2013-07-16 20:12:00,
2013-07-16 15:17:00,86.7,66.4,30.15,WSW,246,8.0,16.0,51,0.00,,,0.00,Wunderground v.1.15,2013-07-16 20:17:00,
2013-07-16 15:22:00,86.9,66.0,30.15,WNW,293,8.0,13.0,50,0.00,,,0.00,Wunderground v.1.15,2013-07-16 20:22:00,
2013-07-16 15:27:00,87.4,67.1,30.15,SW,217,8.0,15.0,51,0.00,,,0.00,Wunderground v.1.15,2013-07-16 20:27:00,
2013-07-16 15:32:00,87.4,67.1,30.15,WSW,250,7.0,11.0,51,0.00,,,0.00,Wunderground v.1.15,2013-07-16 20:32:00,
2013-07-16 15:37:00,87.7,66.8,30.15,WSW,257,7.0,14.0,50,0.00,,,0.00,Wunderground v.1.15,2013-07-16 20:37:00,
2013-07-16 15:42:00,87.4,67.1,30.15,WSW,245,8.0,15.0,51,0.00,,,0.00,Wunderground v.1.15,2013-07-16 20:42:00,
2013-07-16 15:47:00,87.4,66.5,30.15,SSW,198,8.0,15.0,50,0.00,,,0.00,Wunderground v.1.15,2013-07-16 20:47:00,
2013-07-16 15:52:00,87.3,66.4,30.15,SSW,207,7.0,12.0,50,0.00,,,0.00,Wunderground v.1.15,2013-07-16 20:52:00,
2013-07-16 15:58:00,87.4,67.1,30.15,WSW,250,6.0,16.0,51,0.00,,,0.00,Wunderground v.1.15,2013-07-16 20:58:00,
2013-07-16 16:03:00,87.2,66.9,30.15,SW,229,7.0,13.0,51,0.00,,,0.00,Wunderground v.1.15,2013-07-16 21:03:00,
2013-07-16 16:08:00,87.4,67.6,30.15,SSW,195,7.0,13.0,52,0.00,,,0.00,Wunderground v.1.15,2013-07-16 21:08:00,
2013-07-16 16:13:00,88.1,67.7,30.15,WSW,246,5.0,10.0,51,0.00,,,0.00,Wunderground v.1.15,2013-07-16 21:13:00,
2013-07-16 16:18:00,88.0,66.4,30.14,WSW,248,6.0,15.0,49,0.00,,,0.00,Wunderground v.1.15,2013-07-16 21:18:00,
2013-07-16 16:23:00,87.7,66.8,30.15,South,189,8.0,12.0,50,0.00,,,0.00,Wunderground v.1.15,2013-07-16 21:23:00,
2013-07-16 16:28:00,87.6,66.7,30.14,SW,223,7.0,12.0,50,0.00,,,0.00,Wunderground v.1.15,2013-07-16 21:28:00,
2013-07-16 16:33:00,87.9,66.9,30.14,SW,221,6.0,11.0,50,0.00,,,0.00,Wunderground v.1.15,2013-07-16 21:33:00,
2013-07-16 16:38:00,87.9,66.4,30.14,WSW,250,7.0,13.0,49,0.00,,,0.00,Wunderground v.1.15,2013-07-16 21:38:00,
2013-07-16 16:43:00,87.6,66.7,30.14,SW,234,8.0,11.0,50,0.00,,,0.00,Wunderground v.1.15,2013-07-16 21:43:00,
2013-07-16 16:48:00,87.5,66.6,30.14,SW,220,8.0,15.0,50,0.00,,,0.00,Wunderground v.1.15,2013-07-16 21:48:00,
2013-07-16 16:53:00,87.8,66.3,30.14,SW,236,7.0,11.0,49,0.00,,,0.00,Wunderground v.1.15,2013-07-16 21:53:00,
2013-07-16 16:58:00,88.0,66.4,30.14,WSW,249,6.0,12.0,49,0.00,,,0.00,Wunderground v.1.15,2013-07-16 21:58:00,
2013-07-16 17:03:00,87.5,66.6,30.14,South,190,6.0,7.0,50,0.00,,,0.00,Wunderground v.1.15,2013-07-16 22:03:00,
2013-07-16 17:08:00,87.6,66.7,30.14,SW,230,6.0,16.0,50,0.00,,,0.00,Wunderground v.1.15,2013-07-16 22:08:00,
2013-07-16 17:13:00,87.4,65.9,30.14,SSW,203,9.0,15.0,49,0.00,,,0.00,Wunderground v.1.15,2013-07-16 22:13:00,
2013-07-16 17:18:00,87.2,66.3,30.14,SW,235,9.0,15.0,50,0.00,,,0.00,Wunderground v.1.15,2013-07-16 22:18:00,
2013-07-16 17:23:00,87.5,67.1,30.14,SW,229,8.0,11.0,51,0.00,,,0.00,Wunderground v.1.15,2013-07-16 22:23:00,
2013-07-16 17:28:00,87.6,66.7,30.14,South,182,8.0,13.0,50,0.00,,,0.00,Wunderground v.1.15,2013-07-16 22:28:00,
2013-07-16 17:33:00,87.6,65.5,30.14,SW,234,7.0,9.0,48,0.00,,,0.00,Wunderground v.1.15,2013-07-16 22:33:00,
2013-07-16 17:38:00,87.7,66.2,30.14,SW,224,7.0,13.0,49,0.00,,,0.00,Wunderground v.1.15,2013-07-16 22:38:00,
2013-07-16 17:43:00,87.5,66.0,30.14,WSW,242,7.0,10.0,49,0.00,,,0.00,Wunderground v.1.15,2013-07-16 22:43:00,
2013-07-16 17:48:00,87.4,65.9,30.14,WSW,244,7.0,10.0,49,0.00,,,0.00,Wunderground v.1.15,2013-07-16 22:48:00,
2013-07-16 17:53:00,87.6,66.7,30.14,WSW,245,6.0,10.0,50,0.00,,,0.00,Wunderground v.1.15,2013-07-16 22:53:00,
2013-07-16 17:58:00,87.4,65.9,30.14,SW,215,7.0,18.0,49,0.00,,,0.00,Wunderground v.1.15,2013-07-16 22:58:00,
2013-07-16 18:03:00,87.5,65.4,30.14,SW,230,7.0,13.0,48,0.00,,,0.00,Wunderground v.1.15,2013-07-16 23:03:00,
2013-07-16 18:08:00,87.0,65.5,30.13,SSW,206,7.0,13.0,49,0.00,,,0.00,Wunderground v.1.15,2013-07-16 23:08:00,
2013-07-16 18:13:00,87.3,66.4,30.13,SW,231,7.0,9.0,50,0.00,,,0.00,Wunderground v.1.15,2013-07-16 23:13:00,
2013-07-16 18:18:00,87.3,66.4,30.13,SSW,194,6.0,13.0,50,0.00,,,0.00,Wunderground v.1.15,2013-07-16 23:18:00,
2013-07-16 18:23:00,87.2,66.3,30.13,WSW,239,7.0,12.0,50,0.00,,,0.00,Wunderground v.1.15,2013-07-16 23:23:00,
2013-07-16 18:28:00,86.7,66.4,30.13,SW,235,8.0,13.0,51,0.00,,,0.00,Wunderground v.1.15,2013-07-16 23:28:00,
2013-07-16 18:33:00,86.9,66.6,30.13,SSW,208,7.0,12.0,51,0.00,,,0.00,Wunderground v.1.15,2013-07-16 23:33:00,
2013-07-16 18:38:00,87.1,66.8,30.13,SW,216,7.0,12.0,51,0.00,,,0.00,Wunderground v.1.15,2013-07-16 23:38:00,
2013-07-16 18:43:00,86.8,65.9,30.13,SW,228,7.0,12.0,50,0.00,,,0.00,Wunderground v.1.15,2013-07-16 23:43:00,
2013-07-16 18:48:00,86.6,66.3,30.13,SSW,213,8.0,13.0,51,0.00,,,0.00,Wunderground v.1.15,2013-07-16 23:48:00,
2013-07-16 18:53:00,86.7,66.4,30.13,SW,226,7.0,12.0,51,0.00,,,0.00,Wunderground v.1.15,2013-07-16 23:53:00,
2013-07-16 18:58:00,86.7,66.4,30.13,WSW,249,6.0,13.0,51,0.00,,,0.00,Wunderground v.1.15,2013-07-16 23:58:00,
2013-07-16 19:03:00,86.5,66.2,30.13,SW,222,7.0,12.0,51,0.00,,,0.00,Wunderground v.1.15,2013-07-17 00:03:00,
2013-07-16 19:08:00,86.3,66.6,30.13,SSW,207,8.0,12.0,52,0.00,,,0.00,Wunderground v.1.15,2013-07-17 00:08:00,
2013-07-16 19:13:00,86.3,67.2,30.13,SW,221,7.0,9.0,53,0.00,,,0.00,Wunderground v.1.15,2013-07-17 00:13:00,
2013-07-16 19:18:00,86.3,67.2,30.13,WSW,247,6.0,12.0,53,0.00,,,0.00,Wunderground v.1.15,2013-07-17 00:18:00,
2013-07-16 19:23:00,86.2,67.1,30.13,SW,229,6.0,9.0,53,0.00,,,0.00,Wunderground v.1.15,2013-07-17 00:23:00,
2013-07-16 19:28:00,86.1,67.5,30.13,SSW,200,6.0,9.0,54,0.00,,,0.00,Wunderground v.1.15,2013-07-17 00:28:00,
2013-07-16 19:33:00,85.9,67.9,30.13,SW,225,5.0,9.0,55,0.00,,,0.00,Wunderground v.1.15,2013-07-17 00:33:00,
2013-07-16 19:38:00,85.9,67.9,30.13,SW,226,5.0,10.0,55,0.00,,,0.00,Wunderground v.1.15,2013-07-17 00:38:00,
2013-07-16 19:43:00,85.6,67.6,30.13,WSW,258,6.0,11.0,55,0.00,,,0.00,Wunderground v.1.15,2013-07-17 00:43:00,
2013-07-16 19:48:00,85.4,67.9,30.13,WSW,240,6.0,11.0,56,0.00,,,0.00,Wunderground v.1.15,2013-07-17 00:48:00,
2013-07-16 19:53:00,85.4,67.9,30.14,SW,235,5.0,7.0,56,0.00,,,0.00,Wunderground v.1.15,2013-07-17 00:53:00,
2013-07-16 19:58:00,85.2,68.2,30.14,SW,227,4.0,9.0,57,0.00,,,0.00,Wunderground v.1.15,2013-07-17 00:58:00,
2013-07-16 20:03:00,84.8,67.9,30.14,SW,232,5.0,8.0,57,0.00,,,0.00,Wunderground v.1.15,2013-07-17 01:03:00,
2013-07-16 20:08:00,84.6,68.2,30.14,WSW,246,5.0,8.0,58,0.00,,,0.00,Wunderground v.1.15,2013-07-17 01:08:00,
2013-07-16 20:13:00,84.5,68.1,30.13,WSW,243,5.0,7.0,58,0.00,,,0.00,Wunderground v.1.15,2013-07-17 01:13:00,
2013-07-16 20:18:00,84.3,68.4,30.13,SW,216,4.0,7.0,59,0.00,,,0.00,Wunderground v.1.15,2013-07-17 01:18:00,
2013-07-16 20:23:00,84.2,68.8,30.13,WSW,249,3.0,5.0,60,0.00,,,0.00,Wunderground v.1.15,2013-07-17 01:23:00,
2013-07-16 20:28:00,83.9,68.5,30.14,WSW,240,3.0,6.0,60,0.00,,,0.00,Wunderground v.1.15,2013-07-17 01:28:00,
2013-07-16 20:33:00,83.7,68.3,30.14,SW,227,3.0,6.0,60,0.00,,,0.00,Wunderground v.1.15,2013-07-17 01:33:00,
2013-07-16 20:38:00,83.4,68.5,30.14,WSW,241,4.0,6.0,61,0.00,,,0.00,Wunderground v.1.15,2013-07-17 01:38:00,
2013-07-16 20:43:00,83.0,68.6,30.14,SW,225,4.0,6.0,62,0.00,,,0.00,Wunderground v.1.15,2013-07-17 01:43:00,
2013-07-16 20:48:00,82.7,68.4,30.14,SW,224,3.0,6.0,62,0.00,,,0.00,Wunderground v.1.15,2013-07-17 01:48:00,
2013-07-16 20:53:00,82.4,68.5,30.14,SW,215,3.0,5.0,63,0.00,,,0.00,Wunderground v.1.15,2013-07-17 01:53:00,
2013-07-16 20:58:00,82.1,68.7,30.14,SW,223,3.0,5.0,64,0.00,,,0.00,Wunderground v.1.15,2013-07-17 01:58:00,
2013-07-16 21:03:00,81.8,68.4,30.14,SW,225,3.0,7.0,64,0.00,,,0.00,Wunderground v.1.15,2013-07-17 02:03:00,
2013-07-16 21:08:00,81.5,68.6,30.14,SW,219,4.0,7.0,65,0.00,,,0.00,Wunderground v.1.15,2013-07-17 02:08:00,
2013-07-16 21:13:00,81.4,68.5,30.14,SW,222,3.0,4.0,65,0.00,,,0.00,Wunderground v.1.15,2013-07-17 02:13:00,
2013-07-16 21:18:00,81.2,68.8,30.14,SSW,211,3.0,6.0,66,0.00,,,0.00,Wunderground v.1.15,2013-07-17 02:18:00,
2013-07-16 21:23:00,81.1,69.1,30.15,SSW,209,3.0,5.0,67,0.00,,,0.00,Wunderground v.1.15,2013-07-17 02:23:00,
2013-07-16 21:28:00,80.9,68.9,30.15,SSW,210,3.0,5.0,67,0.00,,,0.00,Wunderground v.1.15,2013-07-17 02:28:00,
2013-07-16 21:33:00,80.6,69.1,30.15,SW,219,3.0,4.0,68,0.00,,,0.00,Wunderground v.1.15,2013-07-17 02:33:00,
2013-07-16 21:38:00,80.3,68.8,30.15,SSW,202,3.0,5.0,68,0.00,,,0.00,Wunderground v.1.15,2013-07-17 02:38:00,
2013-07-16 21:43:00,80.2,69.1,30.15,SSW,205,3.0,5.0,69,0.00,,,0.00,Wunderground v.1.15,2013-07-17 02:43:00,
2013-07-16 21:48:00,80.0,68.9,30.15,SSW,209,2.0,5.0,69,0.00,,,0.00,Wunderground v.1.15,2013-07-17 02:48:00,
2013-07-16 21:53:00,79.8,68.7,30.16,SSW,210,1.0,4.0,69,0.00,,,0.00,Wunderground v.1.15,2013-07-17 02:53:00,
2013-07-16 21:58:00,79.5,68.9,30.16,SSW,207,2.0,4.0,70,0.00,,,0.00,Wunderground v.1.15,2013-07-17 02:58:00,
2013-07-16 22:03:00,79.2,68.6,30.16,SSW,208,2.0,4.0,70,0.00,,,0.00,Wunderground v.1.15,2013-07-17 03:03:00,
2013-07-16 22:08:00,79.0,68.8,30.16,SW,215,2.0,4.0,71,0.00,,,0.00,Wunderground v.1.15,2013-07-17 03:08:00,
2013-07-16 22:13:00,78.8,68.6,30.16,SW,217,2.0,4.0,71,0.00,,,0.00,Wunderground v.1.15,2013-07-17 03:13:00,
2013-07-16 22:18:00,78.6,68.8,30.16,SW,214,1.0,4.0,72,0.00,,,0.00,Wunderground v.1.15,2013-07-17 03:18:00,
2013-07-16 22:23:00,78.4,68.6,30.16,SSW,207,2.0,4.0,72,0.00,,,0.00,Wunderground v.1.15,2013-07-17 03:23:00,
2013-07-16 22:28:00,78.3,68.5,30.17,SSW,210,2.0,5.0,72,0.00,,,0.00,Wunderground v.1.15,2013-07-17 03:28:00,
2013-07-16 22:33:00,78.3,68.5,30.16,SSW,203,3.0,5.0,72,0.00,,,0.00,Wunderground v.1.15,2013-07-17 03:33:00,
2013-07-16 22:38:00,78.2,68.4,30.16,SSW,198,3.0,6.0,72,0.00,,,0.00,Wunderground v.1.15,2013-07-17 03:38:00,
2013-07-16 22:43:00,78.2,68.4,30.16,SSW,209,3.0,5.0,72,0.00,,,0.00,Wunderground v.1.15,2013-07-17 03:43:00,
2013-07-16 22:48:00,78.1,68.3,30.17,SW,219,3.0,5.0,72,0.00,,,0.00,Wunderground v.1.15,2013-07-17 03:48:00,
2013-07-16 22:53:00,78.1,68.3,30.16,SSW,209,3.0,7.0,72,0.00,,,0.00,Wunderground v.1.15,2013-07-17 03:53:00,
2013-07-16 22:58:00,78.1,68.3,30.17,SSW,201,3.0,7.0,72,0.00,,,0.00,Wunderground v.1.15,2013-07-17 03:58:00,
2013-07-16 23:01:00,78.1,68.3,30.17,SSW,206,3.0,5.0,72,0.00,,,0.00,Wunderground v.1.15,2013-07-17 04:01:00,
2013-07-16 23:06:00,77.9,68.1,30.17,South,182,3.0,7.0,72,0.00,,,0.00,Wunderground v.1.15,2013-07-17 04:06:00,
2013-07-16 23:11:00,77.7,68.4,30.17,South,182,3.0,4.0,73,0.00,,,0.00,Wunderground v.1.15,2013-07-17 04:11:00,
2013-07-16 23:16:00,77.6,68.3,30.17,South,183,2.0,5.0,73,0.00,,,0.00,Wunderground v.1.15,2013-07-17 04:16:00,
2013-07-16 23:21:00,77.4,68.1,30.17,South,188,2.0,4.0,73,0.00,,,0.00,Wunderground v.1.15,2013-07-17 04:21:00,
2013-07-16 23:26:00,77.2,68.3,30.17,SSW,194,2.0,4.0,74,0.00,,,0.00,Wunderground v.1.15,2013-07-17 04:26:00,
2013-07-16 23:31:00,77.0,68.1,30.17,SSW,194,1.0,4.0,74,0.00,,,0.00,Wunderground v.1.15,2013-07-17 04:31:00,
2013-07-16 23:36:00,76.9,68.0,30.17,SSW,193,1.0,4.0,74,0.00,,,0.00,Wunderground v.1.15,2013-07-17 04:36:00,
2013-07-16 23:41:00,76.7,68.2,30.17,SSW,192,2.0,4.0,75,0.00,,,0.00,Wunderground v.1.15,2013-07-17 04:41:00,
2013-07-16 23:46:00,76.6,68.1,30.17,South,189,2.0,4.0,75,0.00,,,0.00,Wunderground v.1.15,2013-07-17 04:46:00,
2013-07-16 23:51:00,76.6,68.1,30.17,South,170,2.0,4.0,75,0.00,,,0.00,Wunderground v.1.15,2013-07-17 04:51:00,
2013-07-16 23:55:00,76.5,68.4,30.17,South,173,2.0,4.0,76,0.00,,,0.00,Wunderground v.1.15,2013-07-17 04:55:00,
2013-07-16 23:59:00,76.4,68.3,30.17,South,171,1.0,4.0,76,0.00,,,0.00,Wunderground v.1.15,2013-07-17 04:59:00,